| time (UTC) | temp F | wind direction | speed knots | gust knots | rain 1hr in | rain 24hr in | rain mn in | humidity % | barometer mb |
| 20260903214234 | 98 | 292 | 1.7 | 3.5 | 0.00 | 0.00 | 0.00 | 47 | 1019.5 |
| 20260903213733 | 98 | 296 | 1.7 | 2.6 | 0.00 | 0.00 | 0.00 | 47 | 1019.5 |
| 20260903213233 | 98 | 333 | 1.7 | 4.3 | 0.00 | 0.00 | 0.00 | 47 | 1019.5 |
| 20260903212952 | 98 | 218 | 1.7 | 4.3 | 0.00 | 0.00 | 0.00 | 44 | 1019.5 |
| 20260903212231 | 98 | 248 | 1.7 | 3.5 | 0.00 | 0.00 | 0.00 | 45 | 1019.6 |
| 20260903211730 | 98 | 305 | 1.7 | 4.3 | 0.00 | 0.00 | 0.00 | 44 | 1019.6 |
| 20260903211232 | 99 | 15 | 1.7 | 4.3 | 0.00 | 0.00 | 0.00 | 44 | 1019.8 |
| 20260903210952 | 98 | 192 | 1.7 | 3.5 | 0.00 | 0.00 | 0.00 | 45 | 1019.8 |
| 20260903210441 | 98 | 129 | 1.7 | 3.5 | 0.00 | 0.00 | 0.00 | 46 | 1019.8 |
| 20260903205715 | 97 | 200 | 1.7 | 4.3 | 0.00 | 0.00 | 0.00 | 46 | 1020.0 |
| 20260903205436 | 97 | 207 | 1.7 | 4.3 | 0.00 | 0.00 | 0.00 | 47 | 1020.0 |
| 20260903204716 | 97 | 63 | 1.7 | 5.2 | 0.00 | 0.00 | 0.00 | 46 | 1020.0 |
| 20260903204218 | 97 | 186 | 1.7 | 5.2 | 0.00 | 0.00 | 0.00 | 46 | 1020.1 |
| 20260903203716 | 97 | 218 | 1.7 | 2.6 | 0.00 | 0.00 | 0.00 | 48 | 1020.1 |
| 20260903203217 | 97 | 179 | 2.6 | 2.6 | 0.00 | 0.00 | 0.00 | 48 | 1020.1 |
| 20260903202656 | 97 | 179 | 2.6 | 3.5 | 0.00 | 0.00 | 0.00 | 48 | 1020.2 |
| 20260903202153 | 97 | 179 | 2.6 | 5.2 | 0.00 | 0.00 | 0.00 | 48 | 1020.2 |
| 20260903201639 | 97 | 234 | 2.6 | 5.2 | 0.00 | 0.00 | 0.00 | 49 | 1020.2 |
| 20260903201139 | 96 | 186 | 2.6 | 5.2 | 0.00 | 0.00 | 0.00 | 48 | 1020.3 |
| 20260903200638 | 96 | 198 | 1.7 | 4.3 | 0.00 | 0.00 | 0.00 | 49 | 1020.3 |
| 20260903200139 | 96 | 197 | 1.7 | 4.3 | 0.00 | 0.00 | 0.00 | 48 | 1020.3 |
| 20260903195903 | 96 | 76 | 1.7 | 4.3 | 0.00 | 0.00 | 0.00 | 49 | 1020.5 |
| 20260903195142 | 96 | 6 | 1.7 | 4.3 | 0.00 | 0.00 | 0.00 | 47 | 1020.5 |
| 20260903194637 | 96 | 9 | 1.7 | 4.3 | 0.00 | 0.00 | 0.00 | 48 | 1020.5 |
| 20260903194620 | 96 | 179 | 1.7 | 4.3 | 0.00 | 0.00 | 0.00 | 49 | 1020.6 |
| 20260903193857 | 96 | 225 | 1.7 | 4.3 | 0.00 | 0.00 | 0.00 | 51 | 1020.6 |
| 20260903193136 | 95 | 177 | 1.7 | 4.3 | 0.00 | 0.00 | 0.00 | 50 | 1020.6 |
| 20260903192636 | 95 | 340 | 1.7 | 4.3 | 0.00 | 0.00 | 0.00 | 48 | 1020.9 |
| 20260903192135 | 96 | 108 | 1.7 | 3.5 | 0.00 | 0.00 | 0.00 | 48 | 1020.9 |
| 20260903191630 | 96 | 194 | 1.7 | 4.3 | 0.00 | 0.00 | 0.00 | 48 | 1020.9 |
| 20260903191131 | 96 | 136 | 1.7 | 4.3 | 0.00 | 0.00 | 0.00 | 49 | 1021.0 |
| 20260903190629 | 95 | 254 | 2.6 | 4.3 | 0.00 | 0.00 | 0.00 | 51 | 1021.0 |
| 20260903190128 | 95 | 269 | 2.6 | 4.3 | 0.00 | 0.00 | 0.00 | 48 | 1021.0 |
| 20260903185628 | 95 | 201 | 2.6 | 6.1 | 0.00 | 0.00 | 0.00 | 49 | 1021.1 |
| 20260903185347 | 95 | 236 | 2.6 | 6.1 | 0.00 | 0.00 | 0.00 | 49 | 1021.1 |
| 20260903184619 | 95 | 208 | 2.6 | 6.1 | 0.00 | 0.00 | 0.00 | 51 | 1021.1 |
| 20260903184112 | 95 | 205 | 1.7 | 6.1 | 0.00 | 0.00 | 0.00 | 50 | 1021.4 |
| 20260903183613 | 94 | 213 | 1.7 | 6.1 | 0.00 | 0.00 | 0.00 | 52 | 1021.4 |
| 20260903183117 | 94 | 256 | 1.7 | 4.3 | 0.00 | 0.00 | 0.00 | 54 | 1021.4 |
| 20260903182837 | 94 | 176 | 1.7 | 4.3 | 0.00 | 0.00 | 0.00 | 53 | 1021.6 |
| 20260903182110 | 93 | 194 | 1.7 | 3.5 | 0.00 | 0.00 | 0.00 | 55 | 1021.6 |
| 20260903181608 | 92 | 197 | 1.7 | 4.3 | 0.00 | 0.00 | 0.00 | 55 | 1021.6 |
| 20260903181106 | 92 | 199 | 1.7 | 4.3 | 0.00 | 0.00 | 0.00 | 53 | 1021.7 |
| 20260903180605 | 92 | 253 | 1.7 | 3.5 | 0.00 | 0.00 | 0.00 | 55 | 1021.7 |
| 20260903180108 | 91 | 73 | 1.7 | 3.5 | 0.00 | 0.00 | 0.00 | 55 | 1021.7 |
| 20260903175606 | 91 | 10 | 1.7 | 3.5 | 0.00 | 0.00 | 0.00 | 55 | 1021.9 |
| 20260903175105 | 91 | 9 | 0.9 | 3.5 | 0.00 | 0.00 | 0.00 | 55 | 1021.9 |
| 20260903174606 | 91 | 9 | 0.9 | 3.5 | 0.00 | 0.00 | 0.00 | 54 | 1021.9 |
| 20260903174328 | 91 | 161 | 1.7 | 2.6 | 0.00 | 0.00 | 0.00 | 56 | 1022.1 |
| 20260903173606 | 91 | 72 | 1.7 | 4.3 | 0.00 | 0.00 | 0.00 | 55 | 1022.1 |
| 20260903173102 | 91 | 76 | 1.7 | 4.3 | 0.00 | 0.00 | 0.00 | 55 | 1022.1 |
| 20260903172600 | 91 | 134 | 1.7 | 4.3 | 0.00 | 0.00 | 0.00 | 57 | 1022.2 |
| 20260903172100 | 91 | 73 | 1.7 | 4.3 | 0.00 | 0.00 | 0.00 | 56 | 1022.2 |
| 20260903171556 | 90 | 181 | 1.7 | 4.3 | 0.00 | 0.00 | 0.00 | 59 | 1022.2 |
| 20260903171318 | 90 | 57 | 2.6 | 4.3 | 0.00 | 0.00 | 0.00 | 59 | 1022.4 |
| 20260903170546 | 89 | 121 | 2.6 | 6.1 | 0.00 | 0.00 | 0.00 | 60 | 1022.4 |
| 20260903170046 | 89 | 71 | 1.7 | 6.1 | 0.00 | 0.00 | 0.00 | 60 | 1022.4 |
| 20260903165545 | 89 | 71 | 1.7 | 3.5 | 0.00 | 0.00 | 0.00 | 60 | 1022.5 |
| 20260903165046 | 89 | 32 | 1.7 | 3.5 | 0.00 | 0.00 | 0.00 | 62 | 1022.5 |
| 20260903164546 | 89 | 72 | 1.7 | 3.5 | 0.00 | 0.00 | 0.00 | 62 | 1022.5 |
| 20260903164040 | 89 | 1 | 1.7 | 3.5 | 0.00 | 0.00 | 0.00 | 61 | 1022.7 |
| 20260903163540 | 88 | 53 | 1.7 | 3.5 | 0.00 | 0.00 | 0.00 | 65 | 1022.7 |
| 20260903163526 | 88 | 197 | 1.7 | 3.5 | 0.00 | 0.00 | 0.00 | 64 | 1022.7 |
| 20260903162540 | 88 | 218 | 1.7 | 3.5 | 0.00 | 0.00 | 0.00 | 66 | 1022.8 |
| 20260903162041 | 87 | 70 | 1.7 | 3.5 | 0.00 | 0.00 | 0.00 | 66 | 1022.8 |
| 20260903161541 | 87 | 56 | 1.7 | 3.5 | 0.00 | 0.00 | 0.00 | 67 | 1022.8 |
| 20260903161040 | 87 | 62 | 1.7 | 4.3 | 0.00 | 0.00 | 0.00 | 66 | 1022.9 |
| 20260903160800 | 86 | 72 | 1.7 | 4.3 | 0.00 | 0.00 | 0.00 | 65 | 1022.9 |
| 20260903160031 | 86 | 187 | 1.7 | 2.6 | 0.00 | 0.00 | 0.00 | 69 | 1022.9 |
| 20260903160006 | 85 | 72 | 1.7 | 1.7 | 0.00 | 0.00 | 0.00 | 71 | 1022.9 |
| 20260903154952 | 85 | 72 | 1.7 | 1.7 | 0.00 | 0.00 | 0.00 | 71 | 1022.9 |
| 20260903154415 | 85 | 72 | 1.7 | 3.5 | 0.00 | 0.00 | 0.00 | 71 | 1022.9 |
| 20260903153843 | 85 | 64 | 1.7 | 3.5 | 0.00 | 0.00 | 0.00 | 70 | 1023.0 |
| 20260903153344 | 85 | 56 | 1.7 | 3.5 | 0.00 | 0.00 | 0.00 | 70 | 1023.0 |
| 20260903152834 | 84 | 78 | 1.7 | 1.7 | 0.00 | 0.00 | 0.00 | 74 | 1023.0 |
| 20260903152605 | 84 | 78 | 1.7 | 2.6 | 0.00 | 0.00 | 0.00 | 74 | 1023.1 |
| 20260903152038 | 84 | 78 | 1.7 | 3.5 | 0.00 | 0.00 | 0.00 | 74 | 1023.1 |
| 20260903151310 | 84 | 172 | 1.7 | 3.5 | 0.00 | 0.00 | 0.00 | 73 | 1023.1 |
| 20260903150805 | 83 | 64 | 1.7 | 3.5 | 0.00 | 0.00 | 0.00 | 74 | 1023.1 |
| 20260903150305 | 83 | 113 | 1.7 | 3.5 | 0.00 | 0.00 | 0.00 | 75 | 1023.1 |
| 20260903145805 | 82 | 116 | 1.7 | 3.5 | 0.00 | 0.00 | 0.00 | 77 | 1023.1 |
| 20260903145308 | 82 | 87 | 1.7 | 3.5 | 0.00 | 0.00 | 0.00 | 77 | 1023.0 |
| 20260903144808 | 82 | 68 | 1.7 | 3.5 | 0.00 | 0.00 | 0.00 | 78 | 1023.0 |
| 20260903144305 | 81 | 84 | 1.7 | 4.3 | 0.00 | 0.00 | 0.00 | 78 | 1023.0 |
| 20260903144021 | 81 | 72 | 1.7 | 4.3 | 0.00 | 0.00 | 0.00 | 79 | 1023.1 |
| 20260903143520 | 81 | 60 | 1.7 | 4.3 | 0.00 | 0.00 | 0.00 | 81 | 1023.1 |
| 20260903143019 | 80 | 356 | 1.7 | 4.3 | 0.00 | 0.00 | 0.00 | 81 | 1023.1 |
| 20260903142248 | 80 | 69 | 1.7 | 4.3 | 0.00 | 0.00 | 0.00 | 82 | 1023.0 |
| 20260903142238 | 80 | 72 | 1.7 | 4.3 | 0.00 | 0.00 | 0.00 | 82 | 1023.0 |
| 20260903141728 | 79 | 84 | 1.7 | 3.5 | 0.00 | 0.00 | 0.00 | 84 | 1023.0 |
| 20260903140745 | 79 | 63 | 1.7 | 3.5 | 0.00 | 0.00 | 0.00 | 85 | 1023.1 |
| 20260903140245 | 79 | 71 | 1.7 | 3.5 | 0.00 | 0.00 | 0.00 | 86 | 1023.1 |
| 20260903135748 | 78 | 70 | 1.7 | 3.5 | 0.00 | 0.00 | 0.00 | 87 | 1023.1 |
| 20260903135246 | 78 | 71 | 1.7 | 3.5 | 0.00 | 0.00 | 0.00 | 87 | 1023.1 |
| 20260903134737 | 78 | 71 | 1.7 | 3.5 | 0.00 | 0.00 | 0.00 | 88 | 1023.1 |
| 20260903134238 | 76 | 48 | 2.6 | 2.6 | 0.00 | 0.00 | 0.00 | 89 | 1023.1 |
| 20260903133934 | 76 | 48 | 2.6 | 2.6 | 0.00 | 0.00 | 0.00 | 89 | 1023.1 |
| 20260903133213 | 76 | 48 | 2.6 | 3.5 | 0.00 | 0.00 | 0.00 | 89 | 1023.1 |
| 20260903132914 | 76 | 16 | 2.6 | 3.5 | 0.00 | 0.00 | 0.00 | 90 | 1023.4 |
| 20260903132145 | 76 | 65 | 2.6 | 3.5 | 0.00 | 0.00 | 0.00 | 90 | 1023.4 |
| 20260903131911 | 76 | 27 | 1.7 | 3.5 | 0.00 | 0.00 | 0.00 | 91 | 1023.4 |
| 20260903131145 | 75 | 71 | 1.7 | 3.5 | 0.00 | 0.00 | 0.00 | 92 | 1023.4 |
| 20260903130646 | 75 | 69 | 1.7 | 3.5 | 0.00 | 0.00 | 0.00 | 93 | 1023.4 |
| 20260903130146 | 74 | 0 | 1.7 | 3.5 | 0.00 | 0.00 | 0.00 | 93 | 1023.4 |
| 20260903125646 | 74 | 48 | 1.7 | 3.5 | 0.00 | 0.00 | 0.00 | 93 | 1023.4 |
| 20260903125145 | 74 | 63 | 1.7 | 3.5 | 0.00 | 0.00 | 0.00 | 94 | 1023.4 |
| 20260903124645 | 74 | 17 | 1.7 | 3.5 | 0.00 | 0.00 | 0.00 | 94 | 1023.4 |
| 20260903124146 | 74 | 7 | 1.7 | 3.5 | 0.00 | 0.00 | 0.00 | 95 | 1023.4 |
| 20260903124127 | 73 | 60 | 1.7 | 4.3 | 0.00 | 0.00 | 0.00 | 96 | 1023.4 |
| 20260903123142 | 73 | 65 | 1.7 | 4.3 | 0.00 | 0.00 | 0.00 | 96 | 1023.4 |
| 20260903122643 | 73 | 39 | 1.7 | 3.5 | 0.00 | 0.00 | 0.00 | 97 | 1023.4 |
| 20260903122140 | 73 | 62 | 1.7 | 3.5 | 0.00 | 0.00 | 0.00 | 97 | 1023.4 |
| 20260903121640 | 72 | 64 | 1.7 | 3.5 | 0.00 | 0.00 | 0.00 | 98 | 1023.4 |
| 20260903121138 | 72 | 58 | 1.7 | 3.5 | 0.00 | 0.00 | 0.00 | 98 | 1023.1 |
| 20260903120638 | 72 | 59 | 1.7 | 3.5 | 0.00 | 0.00 | 0.00 | 98 | 1023.1 |
| 20260903120134 | 72 | 4 | 1.7 | 3.5 | 0.00 | 0.00 | 0.00 | 99 | 1023.1 |
| 20260903115625 | 71 | 2 | 2.6 | 4.3 | 0.00 | 0.00 | 0.00 | 98 | 1023.0 |
| 20260903115120 | 71 | 7 | 2.6 | 4.3 | 0.00 | 0.00 | 0.00 | 98 | 1023.0 |
| 20260903114620 | 71 | 13 | 2.6 | 4.3 | 0.00 | 0.00 | 0.00 | 98 | 1023.0 |
| 20260903114117 | 71 | 354 | 3.5 | 5.2 | 0.00 | 0.00 | 0.00 | 98 | 1022.9 |
| 20260903113618 | 71 | 11 | 3.5 | 5.2 | 0.00 | 0.00 | 0.00 | 98 | 1022.9 |
| 20260903113118 | 71 | 3 | 3.5 | 4.3 | 0.00 | 0.00 | 0.00 | 98 | 1022.9 |
| 20260903112618 | 71 | 359 | 2.6 | 4.3 | 0.00 | 0.00 | 0.00 | 98 | 1022.6 |
| 20260903112118 | 71 | 10 | 2.6 | 4.3 | 0.00 | 0.00 | 0.00 | 98 | 1022.6 |
| 20260903111615 | 71 | 12 | 1.7 | 4.3 | 0.00 | 0.00 | 0.00 | 98 | 1022.6 |
| 20260903111334 | 71 | 15 | 2.6 | 3.5 | 0.00 | 0.00 | 0.00 | 98 | 1022.4 |
| 20260903110615 | 71 | 10 | 2.6 | 4.3 | 0.00 | 0.00 | 0.00 | 98 | 1022.4 |
| 20260903110115 | 71 | 1 | 1.7 | 4.3 | 0.00 | 0.00 | 0.00 | 97 | 1022.4 |
| 20260903105613 | 71 | 6 | 1.7 | 3.5 | 0.00 | 0.00 | 0.00 | 97 | 1022.3 |
| 20260903105313 | 72 | 18 | 2.6 | 3.5 | 0.00 | 0.00 | 0.00 | 97 | 1022.3 |
| 20260903105154 | 72 | 21 | 2.6 | 3.5 | 0.00 | 0.00 | 0.00 | 97 | 1022.3 |
| 20260903104112 | 72 | 2 | 2.6 | 4.3 | 0.00 | 0.00 | 0.00 | 96 | 1022.3 |
| 20260903103610 | 72 | 19 | 2.6 | 4.3 | 0.00 | 0.00 | 0.00 | 96 | 1022.3 |
| 20260903103336 | 72 | 22 | 1.7 | 3.5 | 0.00 | 0.00 | 0.00 | 96 | 1022.3 |
| 20260903102555 | 72 | 9 | 1.7 | 3.5 | 0.00 | 0.00 | 0.00 | 96 | 1022.2 |
| 20260903102048 | 72 | 24 | 1.7 | 3.5 | 0.00 | 0.00 | 0.00 | 96 | 1022.2 |
| 20260903101806 | 73 | 45 | 1.7 | 3.5 | 0.00 | 0.00 | 0.00 | 96 | 1022.2 |
| 20260903101040 | 73 | 50 | 1.7 | 2.6 | 0.00 | 0.00 | 0.00 | 96 | 1022.2 |
| 20260903100759 | 73 | 51 | 1.7 | 3.5 | 0.00 | 0.00 | 0.00 | 96 | 1022.2 |
| 20260903100041 | 73 | 66 | 1.7 | 4.3 | 0.00 | 0.00 | 0.00 | 96 | 1022.2 |
| 20260903095802 | 72 | 68 | 1.7 | 4.3 | 0.00 | 0.00 | 0.00 | 96 | 1022.1 |
| 20260903095035 | 72 | 28 | 1.7 | 4.3 | 0.00 | 0.00 | 0.00 | 96 | 1022.1 |
| 20260903094802 | 72 | 65 | 1.7 | 3.5 | 0.00 | 0.00 | 0.00 | 97 | 1022.1 |
| 20260903094258 | 72 | 42 | 1.7 | 3.5 | 0.00 | 0.00 | 0.00 | 97 | 1022.0 |
| 20260903093753 | 72 | 60 | 1.7 | 2.6 | 0.00 | 0.00 | 0.00 | 97 | 1022.0 |
| 20260903093032 | 72 | 59 | 0.9 | 2.6 | 0.00 | 0.00 | 0.00 | 97 | 1022.0 |
| 20260903092532 | 72 | 17 | 0.9 | 2.6 | 0.00 | 0.00 | 0.00 | 97 | 1022.0 |
| 20260903092033 | 72 | 17 | 0.9 | 2.6 | 0.00 | 0.00 | 0.00 | 97 | 1022.0 |
| 20260903091532 | 72 | 17 | 0.9 | 1.7 | 0.00 | 0.00 | 0.00 | 97 | 1022.0 |
| 20260903091032 | 72 | 17 | 0.9 | 1.7 | 0.00 | 0.00 | 0.00 | 97 | 1022.0 |
| 20260903090532 | 72 | 17 | 0.9 | 1.7 | 0.00 | 0.00 | 0.00 | 97 | 1022.0 |
| 20260903090031 | 72 | 18 | 0.0 | 1.7 | 0.00 | 0.00 | 0.00 | 97 | 1022.0 |
| 20260903085513 | 72 | 18 | 0.0 | 1.7 | 0.00 | 0.00 | 0.00 | 97 | 1021.9 |
| 20260903085013 | 73 | 11 | 1.7 | 1.7 | 0.00 | 0.00 | 0.00 | 96 | 1021.9 |
| 20260903084510 | 73 | 7 | 1.7 | 2.6 | 0.00 | 0.00 | 0.00 | 96 | 1021.9 |
| 20260903083950 | 73 | 7 | 1.7 | 4.3 | 0.00 | 0.00 | 0.00 | 96 | 1021.8 |
| 20260903083452 | 73 | 18 | 1.7 | 4.3 | 0.00 | 0.00 | 0.00 | 96 | 1021.8 |
| 20260903082940 | 73 | 13 | 1.7 | 4.3 | 0.00 | 0.00 | 0.00 | 96 | 1021.8 |
| 20260903082440 | 73 | 3 | 1.7 | 4.3 | 0.00 | 0.00 | 0.00 | 96 | 1021.7 |
| 20260903081937 | 73 | 14 | 1.7 | 4.3 | 0.00 | 0.00 | 0.00 | 96 | 1021.7 |
| 20260903081641 | 73 | 11 | 2.6 | 3.5 | 0.00 | 0.00 | 0.00 | 97 | 1021.8 |
| 20260903081524 | 73 | 23 | 1.7 | 4.3 | 0.00 | 0.00 | 0.00 | 96 | 1021.7 |
| 20260903080433 | 73 | 14 | 2.6 | 4.3 | 0.00 | 0.00 | 0.00 | 96 | 1021.8 |
| 20260903075925 | 73 | 6 | 2.6 | 4.3 | 0.00 | 0.00 | 0.00 | 96 | 1021.8 |
| 20260903075425 | 73 | 358 | 2.6 | 4.3 | 0.00 | 0.00 | 0.00 | 96 | 1021.8 |
| 20260903074925 | 73 | 353 | 2.6 | 3.5 | 0.00 | 0.00 | 0.00 | 96 | 1021.8 |
| 20260903074422 | 74 | 354 | 2.6 | 3.5 | 0.00 | 0.00 | 0.00 | 96 | 1021.8 |
| 20260903074141 | 74 | 10 | 2.6 | 4.3 | 0.00 | 0.00 | 0.00 | 96 | 1021.8 |
| 20260903073425 | 74 | 14 | 2.6 | 4.3 | 0.00 | 0.00 | 0.00 | 96 | 1021.8 |
| 20260903073138 | 74 | 2 | 1.7 | 4.3 | 0.00 | 0.00 | 0.00 | 96 | 1021.8 |
| 20260903072420 | 74 | 355 | 1.7 | 3.5 | 0.00 | 0.00 | 0.00 | 96 | 1021.8 |
| 20260903071920 | 74 | 12 | 1.7 | 2.6 | 0.00 | 0.00 | 0.00 | 96 | 1021.8 |
| 20260903071420 | 74 | 12 | 1.7 | 2.6 | 0.00 | 0.00 | 0.00 | 96 | 1021.8 |
| 20260903070923 | 74 | 12 | 2.6 | 2.6 | 0.00 | 0.00 | 0.00 | 95 | 1021.8 |
| 20260903070418 | 74 | 7 | 2.6 | 4.3 | 0.00 | 0.00 | 0.00 | 95 | 1021.8 |
| 20260903065915 | 74 | 0 | 2.6 | 4.3 | 0.00 | 0.00 | 0.00 | 95 | 1021.8 |
| 20260903065629 | 74 | 16 | 2.6 | 3.5 | 0.00 | 0.00 | 0.00 | 95 | 1021.8 |
| 20260903064907 | 74 | 359 | 1.7 | 3.5 | 0.00 | 0.00 | 0.00 | 95 | 1021.8 |
| 20260903064405 | 74 | 359 | 1.7 | 3.5 | 0.00 | 0.00 | 0.00 | 95 | 1021.8 |
| 20260903064122 | 74 | 357 | 2.6 | 3.5 | 0.00 | 0.00 | 0.00 | 95 | 1021.9 |
| 20260903063401 | 74 | 7 | 2.6 | 4.3 | 0.00 | 0.00 | 0.00 | 95 | 1021.9 |
| 20260903062857 | 75 | 7 | 2.6 | 4.3 | 0.00 | 0.00 | 0.00 | 95 | 1021.9 |
| 20260903062357 | 75 | 357 | 2.6 | 4.3 | 0.00 | 0.00 | 0.00 | 95 | 1021.9 |
| 20260903061857 | 75 | 347 | 2.6 | 4.3 | 0.00 | 0.00 | 0.00 | 94 | 1021.9 |
| 20260903061843 | 75 | 8 | 2.6 | 3.5 | 0.00 | 0.00 | 0.00 | 94 | 1021.9 |
| 20260903061115 | 75 | 8 | 1.7 | 3.5 | 0.00 | 0.00 | 0.00 | 94 | 1021.9 |
| 20260903060358 | 75 | 5 | 1.7 | 4.3 | 0.00 | 0.00 | 0.00 | 94 | 1021.9 |
| 20260903055858 | 75 | 9 | 1.7 | 4.3 | 0.00 | 0.00 | 0.00 | 94 | 1021.9 |
| 20260903055352 | 75 | 16 | 1.7 | 2.6 | 0.00 | 0.00 | 0.00 | 94 | 1021.9 |
| 20260903054845 | 75 | 17 | 1.7 | 2.6 | 0.00 | 0.00 | 0.00 | 94 | 1021.9 |
| 20260903054345 | 76 | 17 | 1.7 | 2.6 | 0.00 | 0.00 | 0.00 | 93 | 1021.9 |
| 20260903053845 | 76 | 17 | 1.7 | 2.6 | 0.00 | 0.00 | 0.00 | 93 | 1021.9 |
| 20260903053348 | 76 | 13 | 1.7 | 3.5 | 0.00 | 0.00 | 0.00 | 93 | 1021.9 |
| 20260903052838 | 76 | 13 | 2.6 | 3.5 | 0.00 | 0.00 | 0.00 | 93 | 1021.9 |
| 20260903052332 | 76 | 14 | 2.6 | 4.3 | 0.00 | 0.00 | 0.00 | 93 | 1022.0 |
| 20260903051832 | 76 | 341 | 2.6 | 4.3 | 0.00 | 0.00 | 0.00 | 93 | 1022.0 |
| 20260903051556 | 76 | 17 | 2.6 | 3.5 | 0.00 | 0.00 | 0.00 | 93 | 1022.0 |
| 20260903050830 | 76 | 14 | 2.6 | 4.3 | 0.00 | 0.00 | 0.00 | 92 | 1022.1 |
| 20260903050325 | 76 | 18 | 2.6 | 4.3 | 0.00 | 0.00 | 0.00 | 92 | 1022.1 |
| 20260903045828 | 76 | 13 | 3.5 | 4.3 | 0.00 | 0.00 | 0.00 | 92 | 1022.1 |
| 20260903045542 | 76 | 21 | 3.5 | 4.3 | 0.00 | 0.00 | 0.00 | 92 | 1022.0 |
| 20260903045046 | 76 | 6 | 3.5 | 4.3 | 0.00 | 0.00 | 0.00 | 92 | 1022.0 |
| 20260903044732 | 76 | 358 | 3.5 | 4.3 | 0.00 | 0.00 | 0.00 | 92 | 1022.0 |
| 20260903043755 | 77 | 334 | 2.6 | 3.5 | 0.00 | 0.00 | 0.00 | 91 | 1022.0 |
| 20260903043243 | 77 | 334 | 2.6 | 5.2 | 0.00 | 0.00 | 0.00 | 91 | 1022.0 |
| 20260903042732 | 77 | 334 | 2.6 | 5.2 | 0.00 | 0.00 | 0.00 | 91 | 1022.2 |
| 20260903042445 | 77 | 18 | 2.6 | 4.3 | 0.00 | 0.00 | 0.00 | 91 | 1022.2 |
| 20260903041725 | 77 | 6 | 3.5 | 5.2 | 0.00 | 0.00 | 0.00 | 91 | 1022.2 |
| 20260903041225 | 77 | 11 | 3.5 | 5.2 | 0.00 | 0.00 | 0.00 | 91 | 1022.2 |
| 20260903041211 | 77 | 13 | 3.5 | 4.3 | 0.00 | 0.00 | 0.00 | 90 | 1022.2 |
| 20260903040215 | 77 | 349 | 3.5 | 5.2 | 0.00 | 0.00 | 0.00 | 90 | 1022.2 |
| 20260903035715 | 78 | 18 | 3.5 | 5.2 | 0.00 | 0.00 | 0.00 | 90 | 1022.2 |
| 20260903035215 | 78 | 11 | 3.5 | 5.2 | 0.00 | 0.00 | 0.00 | 90 | 1022.2 |
| 20260903034715 | 78 | 25 | 2.6 | 5.2 | 0.00 | 0.00 | 0.00 | 90 | 1022.2 |
| 20260903034213 | 78 | 358 | 2.6 | 4.3 | 0.00 | 0.00 | 0.00 | 90 | 1022.3 |
| 20260903033713 | 78 | 4 | 1.7 | 4.3 | 0.00 | 0.00 | 0.00 | 90 | 1022.3 |
| 20260903033212 | 78 | 24 | 1.7 | 3.5 | 0.00 | 0.00 | 0.00 | 89 | 1022.3 |
| 20260903032710 | 78 | 0 | 1.7 | 3.5 | 0.00 | 0.00 | 0.00 | 89 | 1022.3 |
| 20260903032424 | 78 | 5 | 1.7 | 2.6 | 0.00 | 0.00 | 0.00 | 88 | 1022.3 |
| 20260903031701 | 78 | 5 | 1.7 | 2.6 | 0.00 | 0.00 | 0.00 | 88 | 1022.3 |
| 20260903031158 | 78 | 5 | 1.7 | 2.6 | 0.00 | 0.00 | 0.00 | 88 | 1022.2 |
| 20260903030628 | 78 | 4 | 1.7 | 3.5 | 0.00 | 0.00 | 0.00 | 88 | 1022.2 |
| 20260903030128 | 79 | 17 | 1.7 | 3.5 | 0.00 | 0.00 | 0.00 | 88 | 1022.2 |
| 20260903025627 | 79 | 9 | 0.9 | 1.7 | 0.00 | 0.00 | 0.00 | 86 | 1022.2 |
| 20260903025123 | 79 | 9 | 0.9 | 1.7 | 0.00 | 0.00 | 0.00 | 86 | 1022.2 |
| 20260903024619 | 80 | 9 | 2.6 | 1.7 | 0.00 | 0.00 | 0.00 | 84 | 1022.2 |
| 20260903024115 | 80 | 9 | 2.6 | 2.6 | 0.00 | 0.00 | 0.00 | 84 | 1022.2 |
| 20260903023617 | 80 | 9 | 2.6 | 3.5 | 0.00 | 0.00 | 0.00 | 84 | 1022.2 |
| 20260903023045 | 80 | 8 | 0.0 | 3.5 | 0.00 | 0.00 | 0.00 | 84 | 1022.2 |
| 20260903023027 | 80 | 1 | 0.0 | 3.5 | 0.00 | 0.00 | 0.00 | 84 | 1022.1 |
| 20260903022045 | 80 | 16 | 1.7 | 2.6 | 0.00 | 0.00 | 0.00 | 83 | 1022.1 |
| 20260903021805 | 81 | 16 | 1.7 | 2.6 | 0.00 | 0.00 | 0.00 | 81 | 1022.1 |
| 20260903021040 | 81 | 16 | 1.7 | 3.5 | 0.00 | 0.00 | 0.00 | 81 | 1022.1 |
| 20260903020515 | 81 | 16 | 1.7 | 3.5 | 0.00 | 0.00 | 0.00 | 81 | 1022.1 |
| 20260903020014 | 81 | 355 | 2.6 | 3.5 | 0.00 | 0.00 | 0.00 | 81 | 1022.1 |
| 20260903015737 | 81 | 355 | 2.6 | 3.5 | 0.00 | 0.00 | 0.00 | 80 | 1022.1 |
| 20260903015005 | 81 | 344 | 1.7 | 3.5 | 0.00 | 0.00 | 0.00 | 80 | 1022.1 |
| 20260903014502 | 82 | 355 | 1.7 | 3.5 | 0.00 | 0.00 | 0.00 | 79 | 1022.1 |
| 20260903014000 | 82 | 356 | 1.7 | 3.5 | 0.00 | 0.00 | 0.00 | 78 | 1022.1 |
| 20260903013721 | 82 | 356 | 1.7 | 2.6 | 0.00 | 0.00 | 0.00 | 78 | 1022.1 |
| 20260903013215 | 82 | 356 | 0.0 | 3.5 | 0.00 | 0.00 | 0.00 | 79 | 1022.1 |
| 20260903012456 | 82 | 357 | 0.0 | 3.5 | 0.00 | 0.00 | 0.00 | 78 | 1021.8 |
| 20260903011954 | 82 | 357 | 1.7 | 1.7 | 0.00 | 0.00 | 0.00 | 77 | 1021.8 |
| 20260903011940 | 82 | 356 | 1.7 | 2.6 | 0.00 | 0.00 | 0.00 | 77 | 1021.8 |
| 20260903010947 | 83 | 356 | 0.0 | 2.6 | 0.00 | 0.00 | 0.00 | 77 | 1021.6 |
| 20260903010451 | 83 | 357 | 0.0 | 1.7 | 0.00 | 0.00 | 0.00 | 77 | 1021.6 |
| 20260903005948 | 83 | 357 | 0.9 | 1.7 | 0.00 | 0.00 | 0.00 | 76 | 1021.6 |
| 20260903005447 | 83 | 357 | 0.9 | 1.7 | 0.00 | 0.00 | 0.00 | 75 | 1021.6 |
| 20260903004947 | 83 | 357 | 1.7 | 1.7 | 0.00 | 0.00 | 0.00 | 75 | 1021.6 |
| 20260903004445 | 83 | 356 | 1.7 | 2.6 | 0.00 | 0.00 | 0.00 | 74 | 1021.6 |
| 20260903003942 | 84 | 357 | 1.7 | 2.6 | 0.00 | 0.00 | 0.00 | 74 | 1021.4 |
| 20260903003440 | 85 | 357 | 2.6 | 2.6 | 0.00 | 0.00 | 0.00 | 71 | 1021.4 |
| 20260903002927 | 85 | 357 | 2.6 | 3.5 | 0.00 | 0.00 | 0.00 | 71 | 1021.4 |
| 20260903002419 | 85 | 357 | 2.6 | 3.5 | 0.00 | 0.00 | 0.00 | 71 | 1021.3 |
| 20260903001922 | 85 | 358 | 1.7 | 3.5 | 0.00 | 0.00 | 0.00 | 70 | 1021.3 |
| 20260903001415 | 86 | 358 | 1.7 | 3.5 | 0.00 | 0.00 | 0.00 | 69 | 1021.3 |
| 20260903001122 | 87 | 358 | 1.7 | 3.5 | 0.00 | 0.00 | 0.00 | 66 | 1021.3 |
| 20260903001010 | 86 | 358 | 1.7 | 3.5 | 0.00 | 0.00 | 0.00 | 68 | 1021.3 |
| 20260902235915 | 87 | 358 | 1.7 | 3.5 | 0.00 | 0.00 | 0.00 | 65 | 1021.3 |
| 20260902235415 | 88 | 358 | 1.7 | 2.6 | 0.00 | 0.00 | 0.00 | 64 | 1021.4 |
| 20260902234912 | 89 | 358 | 1.7 | 2.6 | 0.00 | 0.00 | 0.00 | 63 | 1021.4 |
| 20260902234406 | 92 | 358 | 0.9 | 1.7 | 0.00 | 0.00 | 0.00 | 56 | 1021.4 |
| 20260902233855 | 92 | 358 | 0.9 | 1.7 | 0.00 | 0.00 | 0.00 | 56 | 1021.4 |
| 20260902233350 | 92 | 358 | 0.9 | 2.6 | 0.00 | 0.00 | 0.00 | 56 | 1021.4 |
| 20260902232829 | 92 | 358 | 0.9 | 2.6 | 0.00 | 0.00 | 0.00 | 57 | 1021.4 |
| 20260902232326 | 92 | 358 | 0.9 | 1.7 | 0.00 | 0.00 | 0.00 | 54 | 1021.4 |
| 20260902232035 | 93 | 358 | 1.7 | 2.6 | 0.00 | 0.00 | 0.00 | 54 | 1021.4 |
| 20260902231305 | 93 | 358 | 1.7 | 2.6 | 0.00 | 0.00 | 0.00 | 52 | 1021.4 |
| 20260902230754 | 94 | 358 | 1.7 | 2.6 | 0.00 | 0.00 | 0.00 | 50 | 1021.4 |
| 20260902230247 | 94 | 358 | 1.7 | 2.6 | 0.00 | 0.00 | 0.00 | 50 | 1021.4 |
| 20260902225747 | 95 | 358 | 0.9 | 2.6 | 0.00 | 0.00 | 0.00 | 49 | 1021.4 |
| 20260902225245 | 95 | 358 | 0.9 | 2.6 | 0.00 | 0.00 | 0.00 | 49 | 1021.4 |
| 20260902224727 | 95 | 4 | 1.7 | 2.6 | 0.00 | 0.00 | 0.00 | 49 | 1021.4 |
| 20260902224451 | 95 | 4 | 1.7 | 2.6 | 0.00 | 0.00 | 0.00 | 49 | 1021.5 |
| 20260902223946 | 95 | 4 | 1.7 | 2.6 | 0.00 | 0.00 | 0.00 | 48 | 1021.5 |
| 20260902223224 | 95 | 4 | 1.7 | 2.6 | 0.00 | 0.00 | 0.00 | 48 | 1021.5 |
| 20260902222728 | 95 | 7 | 1.7 | 2.6 | 0.00 | 0.00 | 0.00 | 49 | 1021.5 |
| 20260902222212 | 96 | 7 | 1.7 | 2.6 | 0.00 | 0.00 | 0.00 | 47 | 1021.5 |
| 20260902221709 | 96 | 328 | 0.9 | 2.6 | 0.00 | 0.00 | 0.00 | 47 | 1021.5 |
| 20260902221210 | 97 | 309 | 0.9 | 2.6 | 0.00 | 0.00 | 0.00 | 47 | 1021.6 |
| 20260902220935 | 97 | 202 | 0.9 | 2.6 | 0.00 | 0.00 | 0.00 | 47 | 1021.6 |
| 20260902220210 | 97 | 203 | 0.9 | 2.6 | 0.00 | 0.00 | 0.00 | 47 | 1021.6 |
| 20260902215705 | 97 | 203 | 1.7 | 2.6 | 0.00 | 0.00 | 0.00 | 48 | 1021.6 |
| 20260902215419 | 97 | 198 | 1.7 | 2.6 | 0.00 | 0.00 | 0.00 | 46 | 1021.6 |
| 20260902214657 | 96 | 203 | 1.7 | 3.5 | 0.00 | 0.00 | 0.00 | 47 | 1021.6 |